"startDT [UTC]","vpos","CH4 [ppm]","stdev(CH4) [ppm]","CO2 [ppm]","stdev(CO2) [ppm]","H2O_reported [%]","stdev(H2O_reported)","CavityPressure [torr]","CavityTemp [C]","OutletValve","CH4_dry [ppm]","CO2_dry [ppm]","DasTemp [C]","EtalonTemp [C]","WarmBoxTemp [C]","MPVPosition","T_ECpre [C]","T_EC1 [C]","T_EC2 [C]","p_inlet [hPa]","p_in [hPa]","p_out [hPa]","T_inlet [C]","RH_inlet [%]","dwpt_inlet [C]","T_vent [C]","RH_vent [%]","dwpt_vent [C]","flow_vent [l min-1]","flow_inlet [l min-1]","dwpt_sample [C]","T_room [C]"
2016-06-29 00:00:00,3.0,1.87997,0.01621,397.577,0.484,0.2014,0.3235,139.961,45.000,31395.93176,1.88579,398.689,36.407,45.070,45.001,0.00,0.09,-272.79,-272.84,-8,467,-941,21.7,27.9,2.4,21.8,28.2,2.5,5.73,1.97,-0.6,27.4
2016-06-29 00:01:00,3.0,1.87556,0.00034,396.944,0.107,0.0310,0.0020,139.996,45.000,31372.31468,1.87612,397.088,36.427,45.071,45.001,0.00,0.09,-272.78,-272.84,-9,471,-940,21.7,28.0,2.4,21.8,28.3,2.6,5.73,1.65,-0.6,27.4
2016-06-29 00:02:00,3.0,1.87542,0.00039,397.314,0.085,0.0278,0.0020,139.997,45.000,31368.28745,1.87592,397.442,36.412,45.070,45.000,0.00,0.09,-272.79,-272.85,-4,467,-941,21.7,28.0,2.4,21.8,28.3,2.6,5.73,1.97,-0.6,27.4
2016-06-29 00:03:00,3.0,1.87562,0.00040,397.447,0.038,0.0232,0.0020,139.998,45.000,31362.86500,1.87606,397.558,36.386,45.069,44.999,0.00,0.09,-272.78,-272.85,-12,468,-941,21.8,27.8,2.4,21.8,28.2,2.6,5.73,1.67,-0.6,27.4
2016-06-29 00:04:00,3.0,1.87580,0.00028,397.499,0.029,0.0190,0.0023,139.999,44.999,31359.70517,1.87615,397.591,36.366,45.069,44.999,0.00,0.09,-272.78,-272.84,-7,464,-941,21.8,27.3,2.1,21.8,27.7,2.4,5.73,1.90,-0.6,27.5
2016-06-29 00:05:00,3.0,1.87575,0.00053,397.521,0.029,0.0151,0.0023,139.998,44.999,31357.77484,1.87601,397.592,36.313,45.068,44.999,0.00,0.09,-272.79,-272.85,-9,472,-941,21.8,27.1,2.0,21.8,27.5,2.3,5.73,1.78,-0.6,27.5
2016-06-29 00:06:00,3.0,1.87585,0.00028,397.525,0.028,0.0120,0.0019,139.997,44.999,31358.28323,1.87607,397.582,36.303,45.069,44.999,0.00,0.09,-272.79,-272.86,-9,471,-941,21.9,26.9,2.0,21.8,27.3,2.2,5.73,1.75,-0.5,27.5
2016-06-29 00:07:00,3.0,1.87604,0.00031,397.542,0.031,0.0094,0.0018,139.998,45.000,31356.40757,1.87621,397.588,36.287,45.069,45.000,0.00,0.09,-272.78,-272.84,-10,471,-941,21.8,26.9,2.0,21.9,27.3,2.2,5.73,1.94,-0.5,27.5
2016-06-29 00:08:00,3.0,1.87592,0.00038,397.586,0.029,0.0078,0.0020,139.999,45.000,31357.14379,1.87609,397.623,36.310,45.070,45.001,0.00,0.09,-272.78,-272.84,-9,471,-941,21.8,27.0,2.0,21.9,27.3,2.2,5.73,1.65,-0.5,27.5
2016-06-29 00:09:00,3.0,1.87598,0.00040,397.573,0.031,0.0072,0.0020,140.000,45.000,31357.80139,1.87612,397.608,36.315,45.071,45.001,0.00,0.09,-272.79,-272.85,-10,471,-941,21.9,26.7,1.9,21.9,27.2,2.2,5.73,1.95,-0.5,27.5
2016-06-29 00:10:00,3.0,1.87606,0.00038,397.589,0.027,0.0063,0.0017,140.001,45.000,31359.20059,1.87617,397.618,36.313,45.070,45.001,0.00,0.09,-272.78,-272.84,-9,471,-941,21.9,26.7,1.9,21.9,27.1,2.1,5.73,1.70,-0.5,27.5
2016-06-29 00:11:00,3.0,1.87621,0.00030,397.595,0.024,0.0050,0.0023,139.996,45.000,31356.87045,1.87629,397.619,36.313,45.070,45.000,0.00,0.09,-272.77,-272.83,-10,472,-941,21.9,26.5,1.8,22.0,27.0,2.1,5.73,1.85,-0.5,27.5
2016-06-29 00:12:00,3.0,1.87616,0.00034,397.566,0.024,0.0062,0.0017,139.998,45.000,31357.82955,1.87628,397.595,36.313,45.069,44.999,0.00,0.09,-272.79,-272.84,-9,472,-941,22.0,26.7,2.0,22.0,27.1,2.2,5.73,1.83,-0.5,27.5
2016-06-29 00:13:00,3.0,1.87587,0.00032,397.575,0.023,0.0052,0.0027,140.002,45.000,31359.79872,1.87596,397.600,36.301,45.069,44.999,0.00,0.09,-272.78,-272.85,-10,472,-941,22.0,26.7,2.0,22.0,27.2,2.2,5.73,1.72,-0.5,27.5
2016-06-29 00:14:00,3.0,1.87603,0.00032,397.576,0.028,0.0032,0.0022,139.999,45.000,31359.50428,1.87609,397.592,36.296,45.069,44.999,0.00,0.09,-272.78,-272.84,-9,472,-941,22.0,27.0,2.1,22.0,27.4,2.3,5.73,1.95,-0.5,27.6
2016-06-29 00:15:00,3.0,1.87591,0.00031,397.600,0.032,0.0036,0.0019,140.000,45.000,31361.40238,1.87599,397.617,36.280,45.069,45.000,0.00,0.09,-272.77,-272.84,-10,472,-941,22.0,27.0,2.2,22.1,27.6,2.5,5.73,1.64,-0.5,27.6
2016-06-29 00:16:00,3.0,1.87586,0.00033,397.569,0.029,0.0034,0.0026,139.999,45.000,31362.01425,1.87591,397.586,36.299,45.070,45.001,0.00,0.09,-272.79,-272.84,-10,472,-941,22.0,27.1,2.2,22.1,27.6,2.5,5.73,1.95,-0.5,27.6
2016-06-29 00:17:00,3.0,1.87589,0.00042,397.593,0.036,0.0024,0.0020,140.000,45.000,31359.91795,1.87594,397.603,36.288,45.070,45.001,0.00,0.09,-272.78,-272.84,-9,472,-941,22.1,27.2,2.3,22.1,27.7,2.5,5.73,1.70,-0.5,27.6
2016-06-29 00:18:00,3.0,1.87593,0.00036,397.609,0.030,0.0031,0.0020,139.999,45.000,31360.02210,1.87598,397.624,36.272,45.070,45.000,0.00,0.09,-272.78,-272.85,-10,472,-941,22.1,27.1,2.3,22.1,27.6,2.5,5.73,1.86,-0.5,27.6
2016-06-29 00:19:00,3.0,1.87582,0.00031,397.594,0.027,0.0025,0.0017,139.999,45.000,31360.48505,1.87587,397.607,36.261,45.070,45.000,0.00,0.09,-272.79,-272.84,-9,472,-941,22.2,27.3,2.4,22.1,27.8,2.7,5.73,1.81,-0.5,27.6
2016-06-29 00:20:00,0.0,1.91729,0.01409,398.044,0.292,0.7658,0.3026,140.025,45.000,31707.89202,1.93025,401.699,36.250,45.069,44.999,0.00,0.09,-272.78,-272.85,-12,522,-940,22.2,27.1,2.3,22.1,27.7,2.6,5.73,1.74,-0.5,27.6
2016-06-29 00:21:00,0.0,1.92014,0.00065,397.644,0.206,0.9292,0.0118,140.003,45.000,31739.13623,1.93826,402.223,36.239,45.069,44.999,0.00,0.09,-272.79,-272.84,-12,524,-940,22.2,27.4,2.5,22.2,27.9,2.8,5.73,1.83,-0.5,27.6
2016-06-29 00:22:00,0.0,1.92091,0.00074,397.849,0.129,0.9178,0.0066,139.999,45.000,31747.60968,1.93878,402.371,36.250,45.069,44.999,0.00,0.09,-272.78,-272.84,-11,524,-940,22.2,26.8,2.2,22.2,27.5,2.6,5.73,1.86,-0.5,27.6
2016-06-29 00:23:00,0.0,1.92008,0.00093,397.893,0.061,0.9140,0.0039,140.002,45.000,31755.11956,1.93786,402.395,36.250,45.069,44.999,0.00,0.09,-272.79,-272.84,-12,524,-940,22.2,26.6,2.1,22.2,27.3,2.5,5.73,1.81,-0.5,27.6
2016-06-29 00:24:00,0.0,1.91965,0.00049,397.888,0.301,0.9233,0.0067,140.001,45.000,31762.33556,1.93764,402.445,36.251,45.070,45.000,0.00,0.09,-272.78,-272.84,-10,524,-940,22.3,26.8,2.3,22.2,27.3,2.5,5.73,1.86,-0.5,27.7
2016-06-29 00:25:00,0.0,1.92061,0.00076,397.671,0.098,0.9303,0.0067,139.998,45.000,31766.14139,1.93863,402.249,36.262,45.071,45.001,0.00,0.09,-272.78,-272.83,-12,524,-940,22.3,26.9,2.3,22.2,27.5,2.6,5.73,1.81,-0.5,27.6
2016-06-29 00:26:00,0.0,1.92192,0.00078,397.735,0.050,0.9242,0.0026,139.999,45.000,31770.54279,1.93985,402.291,36.254,45.071,45.001,0.00,0.09,-272.79,-272.85,-11,525,-940,22.3,26.7,2.3,22.2,27.4,2.6,5.73,1.87,-0.5,27.7
2016-06-29 00:27:00,0.0,1.92416,0.00110,397.803,0.084,0.9196,0.0035,140.000,45.000,31773.58833,1.94211,402.331,36.253,45.070,45.000,0.00,0.09,-272.78,-272.84,-11,525,-940,22.3,26.5,2.1,22.3,27.2,2.5,5.73,1.78,-0.5,27.6
2016-06-29 00:28:00,0.0,1.92461,0.00097,397.832,0.084,0.9166,0.0031,140.001,45.000,31778.06829,1.94240,402.354,36.252,45.070,45.000,0.00,0.09,-272.77,-272.84,-12,525,-940,22.3,26.4,2.1,22.3,27.0,2.4,5.73,1.91,-0.5,27.6
2016-06-29 00:29:00,0.0,1.92549,0.00140,397.591,0.175,0.9256,0.0106,140.000,45.000,31781.41309,1.94364,402.145,36.250,45.070,45.000,0.00,0.09,-272.79,-272.84,-11,525,-940,22.3,26.6,2.2,22.3,27.1,2.4,5.73,1.74,-0.5,27.7
2016-06-29 00:30:00,0.0,1.92660,0.00190,397.598,0.080,0.9245,0.0042,140.000,45.000,31782.92568,1.94455,402.157,36.249,45.069,44.999,0.00,0.09,-272.78,-272.85,-12,525,-940,22.3,26.6,2.2,22.3,27.3,2.5,5.73,1.94,-0.4,27.6
2016-06-29 00:31:00,0.0,1.92369,0.00104,397.701,0.072,0.9212,0.0035,139.999,44.999,31786.14035,1.94170,402.235,36.245,45.069,44.999,0.00,0.09,-272.77,-272.84,-11,525,-940,22.4,26.4,2.2,22.3,27.1,2.5,5.73,1.71,-0.5,27.7
2016-06-29 00:32:00,0.0,1.92426,0.00089,397.755,0.051,0.9182,0.0019,139.999,45.000,31786.70953,1.94213,402.280,36.234,45.069,44.999,0.00,0.09,-272.78,-272.84,-12,525,-940,22.4,26.3,2.1,22.3,27.0,2.4,5.73,1.97,-0.5,27.7
2016-06-29 00:33:00,0.0,1.92476,0.00135,397.621,0.091,0.9227,0.0028,140.000,45.000,31789.00200,1.94283,402.166,36.214,45.069,44.999,0.00,0.09,-272.79,-272.85,-11,526,-940,22.4,26.5,2.2,22.3,27.0,2.4,5.73,1.68,-0.5,27.7
2016-06-29 00:34:00,0.0,1.92426,0.00061,397.563,0.064,0.9256,0.0032,139.999,45.000,31786.88886,1.94231,402.120,36.210,45.069,44.999,0.00,0.09,-272.79,-272.84,-11,525,-939,22.4,26.6,2.2,22.3,27.1,2.5,5.73,2.00,-0.4,27.7
2016-06-29 00:35:00,0.0,1.92136,0.00163,397.643,0.039,0.9224,0.0025,140.001,45.000,31789.52010,1.93947,402.186,36.197,45.069,45.000,0.00,0.09,-272.78,-272.84,-12,526,-939,22.4,26.4,2.1,22.3,27.1,2.5,5.73,1.66,-0.4,27.7
2016-06-29 00:36:00,0.0,1.92101,0.00079,397.604,0.094,0.9257,0.0054,139.999,45.000,31788.90684,1.93900,402.167,36.195,45.069,45.000,0.00,0.09,-272.80,-272.84,-10,525,-939,22.4,26.5,2.2,22.3,27.1,2.5,5.73,2.01,-0.4,27.7
2016-06-29 00:37:00,0.0,1.92246,0.00176,397.660,0.061,0.9195,0.0068,139.998,45.000,31790.79206,1.94026,402.186,36.206,45.070,45.000,0.00,0.09,-272.79,-272.84,-12,526,-939,22.4,26.3,2.1,22.3,27.0,2.4,5.73,1.66,-0.4,27.7
2016-06-29 00:38:00,0.0,1.92484,0.00095,397.657,0.048,0.9172,0.0027,140.000,45.000,31792.25563,1.94272,402.176,36.208,45.070,45.000,0.00,0.09,-272.78,-272.83,-11,526,-939,22.4,26.2,2.0,22.3,26.8,2.3,5.73,2.01,-0.4,27.7
2016-06-29 00:39:00,0.0,1.92555,0.00162,397.639,0.049,0.9187,0.0035,139.998,45.000,31791.67357,1.94344,402.162,36.194,45.069,45.000,0.00,0.09,-272.78,-272.85,-12,526,-939,22.4,26.3,2.1,22.3,26.9,2.3,5.73,1.66,-0.4,27.7
2016-06-29 00:40:00,0.0,1.92322,0.00147,397.712,0.107,0.9094,0.0095,139.996,45.000,31792.99405,1.94097,402.188,36.213,45.070,45.000,0.00,0.09,-272.79,-272.84,-11,526,-939,22.4,25.9,1.9,22.4,26.7,2.3,5.73,2.01,-0.4,27.7
2016-06-29 00:41:00,0.0,1.92388,0.00069,397.786,0.109,0.8996,0.0043,140.002,45.000,31793.94730,1.94141,402.214,36.235,45.070,45.000,0.00,0.09,-272.77,-272.83,-11,526,-939,22.4,25.7,1.7,22.4,26.3,2.1,5.73,1.66,-0.4,27.7
2016-06-29 00:42:00,0.0,1.92444,0.00042,397.832,0.079,0.8918,0.0031,139.998,45.000,31796.63127,1.94181,402.225,36.234,45.070,45.000,0.00,0.09,-272.78,-272.84,-12,526,-939,22.4,25.5,1.6,22.3,26.1,1.9,5.73,2.00,-0.4,27.7
2016-06-29 00:43:00,0.0,1.92504,0.00103,397.749,0.060,0.9030,0.0053,139.999,45.000,31796.53970,1.94256,402.193,36.226,45.070,45.000,0.00,0.09,-272.78,-272.85,-10,526,-939,22.4,25.8,1.8,22.3,26.2,2.0,5.73,1.66,-0.4,27.7
2016-06-29 00:44:00,0.0,1.92627,0.00103,397.758,0.062,0.9053,0.0047,139.999,45.000,31796.50418,1.94397,402.216,36.219,45.070,45.000,0.00,0.09,-272.78,-272.84,-12,526,-939,22.4,25.8,1.8,22.4,26.4,2.1,5.73,2.00,-0.4,27.7
2016-06-29 00:45:00,0.0,1.92567,0.00025,397.779,0.058,0.8943,0.0054,139.996,45.000,31795.41134,1.94314,402.182,36.218,45.070,45.000,0.00,0.09,-272.78,-272.84,-11,526,-940,22.4,25.5,1.7,22.3,26.1,1.9,5.73,1.68,-0.4,27.7
2016-06-29 00:46:00,0.0,1.92674,0.00075,397.776,0.052,0.8986,0.0037,139.999,45.000,31797.07261,1.94422,402.199,36.191,45.070,45.000,0.00,0.09,-272.79,-272.85,-12,526,-939,22.4,25.6,1.7,22.3,26.1,2.0,5.73,1.98,-0.4,27.7
2016-06-29 00:47:00,0.0,1.93110,0.00291,397.924,0.504,0.9084,0.0094,140.002,45.000,31799.20333,1.94880,402.401,36.172,45.070,45.000,0.00,0.09,-272.78,-272.85,-11,526,-939,22.4,26.0,1.9,22.3,26.3,2.1,5.73,1.71,-0.4,27.7
2016-06-29 00:48:00,0.0,1.93002,0.00232,397.636,0.045,0.9136,0.0038,139.997,45.000,31797.81204,1.94764,402.135,36.150,45.070,45.000,0.00,0.09,-272.78,-272.83,-11,526,-939,22.4,26.1,2.0,22.3,26.6,2.2,5.73,1.94,-0.4,27.7
2016-06-29 00:49:00,0.0,1.93073,0.00150,397.522,0.103,0.9219,0.0053,139.999,45.000,31799.23143,1.94895,402.059,36.176,45.070,45.000,0.00,0.09,-272.78,-272.84,-12,526,-939,22.4,26.4,2.1,22.3,26.8,2.3,5.73,1.74,-0.4,27.7
2016-06-29 00:50:00,0.0,1.93068,0.00164,397.426,0.174,0.9285,0.0057,140.001,45.000,31798.89923,1.94897,401.999,36.182,45.070,45.000,0.00,0.09,-272.79,-272.84,-10,526,-939,22.3,26.6,2.2,22.3,27.0,2.4,5.73,1.90,-0.4,27.7
2016-06-29 00:51:00,0.0,1.92902,0.00143,397.468,0.078,0.9242,0.0052,139.997,45.000,31798.17594,1.94698,402.022,36.182,45.070,45.000,0.00,0.09,-272.78,-272.84,-12,526,-939,22.3,26.4,2.1,22.3,27.1,2.4,5.73,1.78,-0.4,27.7
2016-06-29 00:52:00,0.0,1.92817,0.00185,397.464,0.085,0.9255,0.0040,140.001,45.000,31799.55755,1.94626,402.016,36.127,45.070,45.000,0.00,0.09,-272.78,-272.84,-11,526,-939,22.3,26.5,2.1,22.3,26.9,2.4,5.73,1.85,-0.4,27.7
2016-06-29 00:53:00,0.0,1.92905,0.00127,397.389,0.103,0.9312,0.0057,139.999,45.000,31798.96090,1.94730,401.976,36.092,45.069,45.000,0.00,0.09,-272.78,-272.85,-11,526,-939,22.3,26.8,2.3,22.3,27.1,2.5,5.73,1.85,-0.4,27.7
2016-06-29 00:54:00,0.0,1.92885,0.00252,397.382,0.146,0.9382,0.0063,139.997,45.000,31795.17716,1.94720,402.005,36.037,45.070,45.000,0.00,0.09,-272.79,-272.84,-12,526,-939,22.3,27.0,2.4,22.3,27.3,2.6,5.73,1.77,-0.3,27.7
2016-06-29 00:55:00,0.0,1.92901,0.00153,397.199,0.056,0.9469,0.0043,139.998,44.999,31793.05543,1.94763,401.863,36.002,45.070,45.000,0.00,0.09,-272.78,-272.84,-10,526,-939,22.2,27.3,2.5,22.3,27.7,2.7,5.73,1.92,-0.3,27.7
2016-06-29 00:56:00,0.0,1.92690,0.00506,397.105,0.093,0.9495,0.0028,140.000,45.000,31794.45682,1.94583,401.780,35.979,45.071,45.001,0.00,0.09,-272.78,-272.85,-12,526,-939,22.2,27.5,2.5,22.2,27.8,2.7,5.73,1.73,-0.3,27.6
2016-06-29 00:57:00,0.0,1.92368,0.00448,397.111,0.107,0.9466,0.0063,140.000,45.000,31792.27163,1.94184,401.769,35.949,45.071,45.002,0.00,0.09,-272.78,-272.85,-10,526,-939,22.1,27.4,2.5,22.2,27.9,2.7,5.73,1.95,-0.3,27.6
2016-06-29 00:58:00,0.0,1.92747,0.00281,397.027,0.071,0.9561,0.0064,140.000,45.000,31792.75232,1.94605,401.735,35.939,45.072,45.002,0.00,0.09,-272.78,-272.83,-12,526,-939,22.1,27.7,2.6,22.2,27.9,2.7,5.73,1.68,-0.3,27.6
2016-06-29 00:59:00,0.0,1.92920,0.00085,397.085,0.044,0.9554,0.0028,139.997,45.000,31789.79517,1.94778,401.790,35.891,45.071,45.001,0.00,0.09,-272.78,-272.84,-11,526,-939,22.0,27.8,2.6,22.2,28.1,2.9,5.73,2.00,-0.2,27.6
2016-06-29 01:00:00,0.0,1.93265,0.00086,397.284,0.065,0.9449,0.0041,139.999,45.000,31789.43562,1.95113,401.935,35.874,45.071,45.001,0.00,0.09,-272.79,-272.86,-11,526,-939,22.0,27.5,2.4,22.1,27.9,2.7,5.73,1.65,-0.2,27.6
2016-06-29 01:01:00,0.0,1.93150,0.00102,397.256,0.063,0.9423,0.0030,139.998,45.000,31786.34413,1.95005,401.894,35.867,45.071,45.001,0.00,0.09,-272.78,-272.84,-12,525,-939,22.0,27.5,2.4,22.1,27.8,2.6,5.73,2.01,-0.2,27.5
2016-06-29 01:02:00,0.0,1.93014,0.00081,397.315,0.085,0.9351,0.0041,140.001,45.000,31787.46117,1.94836,401.920,35.851,45.071,45.001,0.00,0.09,-272.78,-272.84,-10,525,-939,22.0,27.3,2.3,22.1,27.6,2.6,5.73,1.66,-0.2,27.5
2016-06-29 01:03:00,0.0,1.93146,0.00081,397.300,0.050,0.9397,0.0026,140.000,45.001,31787.65911,1.94991,401.926,35.873,45.071,45.002,0.00,0.09,-272.79,-272.84,-12,525,-939,21.9,27.5,2.3,22.1,27.7,2.6,5.73,2.01,-0.2,27.5
2016-06-29 01:04:00,0.0,1.93062,0.00063,397.328,0.071,0.9363,0.0035,139.998,45.001,31788.89944,1.94896,401.940,35.909,45.072,45.002,0.00,0.09,-272.78,-272.84,-10,525,-940,21.9,27.5,2.3,22.1,27.7,2.6,5.73,1.67,-0.2,27.4
2016-06-29 01:05:00,0.0,1.93110,0.00172,397.227,0.054,0.9413,0.0025,139.999,45.001,31792.68979,1.94958,401.862,35.938,45.072,45.002,0.00,0.09,-272.78,-272.84,-12,525,-940,21.9,27.7,2.4,22.1,27.8,2.6,5.73,1.99,-0.1,27.5
2016-06-29 01:06:00,0.0,1.92888,0.00087,397.113,0.096,0.9506,0.0046,140.001,45.002,31798.14394,1.94748,401.791,35.972,45.072,45.002,0.00,0.09,-272.78,-272.84,-11,525,-940,21.9,27.9,2.5,22.1,28.0,2.7,5.73,1.70,-0.1,27.5
2016-06-29 01:07:00,0.0,1.92918,0.00073,397.178,0.055,0.9472,0.0032,139.997,45.002,31801.35015,1.94767,401.845,36.018,45.072,45.002,0.00,0.09,-272.79,-272.84,-12,525,-940,21.9,27.9,2.5,22.1,28.0,2.8,5.73,1.93,-0.1,27.5
2016-06-29 01:08:00,0.0,1.92998,0.00062,397.072,0.080,0.9547,0.0050,140.000,45.002,31806.23948,1.94869,401.775,36.068,45.072,45.002,0.00,0.09,-272.78,-272.83,-11,525,-940,21.9,28.1,2.6,22.1,28.2,2.8,5.73,1.80,-0.1,27.5
2016-06-29 01:09:00,0.0,1.92938,0.00065,396.942,0.057,0.9636,0.0040,140.000,45.002,31809.10092,1.94824,401.685,36.121,45.072,45.002,0.00,0.09,-272.77,-272.85,-12,525,-940,21.9,28.4,2.8,22.1,28.4,2.9,5.73,1.81,-0.1,27.5
2016-06-29 01:10:00,0.0,1.92898,0.00075,397.031,0.101,0.9589,0.0077,139.999,45.002,31810.30671,1.94783,401.751,36.185,45.072,45.002,0.00,0.09,-272.79,-272.85,-11,525,-940,21.9,28.3,2.7,22.1,28.4,3.0,5.73,1.92,-0.0,27.5
2016-06-29 01:11:00,0.0,1.92871,0.00041,397.175,0.054,0.9502,0.0035,139.999,45.002,31813.32927,1.94728,401.855,36.227,45.072,45.002,0.00,0.09,-272.78,-272.84,-12,525,-940,21.9,27.9,2.6,22.1,28.2,2.8,5.73,1.69,-0.0,27.6
2016-06-29 01:12:00,0.0,1.92925,0.00064,396.830,0.119,0.9651,0.0058,139.997,45.002,31817.88843,1.94814,401.578,36.295,45.072,45.002,0.00,0.09,-272.79,-272.84,-11,525,-941,22.0,28.4,2.8,22.2,28.4,3.0,5.73,2.00,0.0,27.7
2016-06-29 01:13:00,0.0,1.92954,0.00066,396.927,0.086,0.9608,0.0041,139.999,45.002,31820.84736,1.94835,401.659,36.382,45.072,45.002,0.00,0.09,-272.78,-272.85,-12,525,-941,22.0,28.3,2.8,22.2,28.5,3.0,5.73,1.70,0.0,27.7
2016-06-29 01:14:00,0.0,1.92850,0.00096,396.797,0.082,0.9652,0.0034,140.000,45.001,31825.08193,1.94737,401.548,36.470,45.072,45.002,0.00,0.09,-272.79,-272.84,-10,525,-941,22.0,28.4,2.8,22.2,28.5,3.0,5.73,1.91,0.0,27.7
2016-06-29 01:15:00,0.0,1.92857,0.00100,396.820,0.094,0.9680,0.0055,139.998,45.001,31828.90396,1.94753,401.584,36.542,45.071,45.001,0.00,0.09,-272.79,-272.83,-12,525,-941,22.0,28.4,2.9,22.2,28.6,3.1,5.73,1.84,0.1,27.7
2016-06-29 01:16:00,0.0,1.92909,0.00075,396.975,0.138,0.9624,0.0056,139.997,45.001,31829.77003,1.94796,401.718,36.589,45.071,45.001,0.00,0.09,-272.78,-272.84,-10,525,-941,22.0,28.3,2.8,22.2,28.5,3.1,5.73,1.76,0.1,27.8
2016-06-29 01:17:00,0.0,1.92768,0.00069,396.704,0.054,0.9755,0.0057,140.001,45.001,31833.14617,1.94678,401.505,36.635,45.070,45.000,0.00,0.09,-272.79,-272.84,-12,525,-941,22.0,28.6,3.0,22.3,28.6,3.2,5.73,1.96,0.1,27.8
2016-06-29 01:18:00,0.0,1.92866,0.00070,396.843,0.164,0.9727,0.0094,140.000,45.000,31833.82645,1.94771,401.631,36.701,45.070,45.000,0.00,0.09,-272.78,-272.84,-10,525,-941,22.1,28.5,3.0,22.3,28.8,3.2,5.73,1.67,0.1,27.8
2016-06-29 01:19:00,0.0,1.92816,0.00039,396.826,0.092,0.9675,0.0043,139.998,45.000,31837.37118,1.94710,401.590,36.757,45.070,45.000,0.00,0.09,-272.78,-272.84,-12,525,-941,22.1,28.4,2.9,22.3,28.5,3.1,5.73,1.99,0.1,27.9
2016-06-29 01:20:00,0.0,1.92687,0.00087,396.748,0.076,0.9682,0.0030,140.001,45.000,31837.87711,1.94582,401.513,36.811,45.069,45.000,0.00,0.09,-272.78,-272.85,-10,525,-941,22.1,28.4,2.9,22.3,28.5,3.1,5.73,1.69,0.1,27.9
2016-06-29 01:21:00,0.0,1.92735,0.00075,396.938,0.070,0.9550,0.0040,140.000,45.000,31834.55315,1.94609,401.641,36.833,45.069,44.999,0.00,0.09,-272.78,-272.84,-12,525,-941,22.1,28.0,2.7,22.3,28.2,3.0,5.73,1.94,0.1,27.9
2016-06-29 01:22:00,0.0,1.92625,0.00031,396.919,0.049,0.9532,0.0027,140.001,44.999,31831.48347,1.94488,401.609,36.821,45.068,44.999,0.00,0.09,-272.77,-272.84,-10,526,-941,22.0,27.9,2.6,22.3,28.0,2.9,5.73,1.72,0.1,27.9
2016-06-29 01:23:00,0.0,1.92688,0.00057,396.839,0.083,0.9606,0.0062,140.000,44.999,31829.74995,1.94562,401.568,36.782,45.068,44.998,0.00,0.09,-272.78,-272.85,-12,526,-941,22.1,28.2,2.8,22.3,28.1,2.9,5.73,1.95,0.1,27.9
2016-06-29 01:24:00,0.0,1.92734,0.00077,396.745,0.049,0.9673,0.0026,140.000,44.998,31828.17877,1.94623,401.506,36.726,45.067,44.997,0.00,0.09,-272.79,-272.85,-11,526,-941,22.1,28.4,2.9,22.3,28.4,3.1,5.73,1.70,0.1,27.9
2016-06-29 01:25:00,0.0,1.92881,0.00066,396.666,0.066,0.9756,0.0048,140.000,44.998,31824.39602,1.94791,401.470,36.688,45.067,44.997,0.00,0.09,-272.77,-272.84,-11,526,-941,22.0,28.7,3.0,22.3,28.6,3.2,5.73,1.97,0.1,27.9
2016-06-29 01:26:00,0.0,1.92764,0.00050,396.734,0.088,0.9777,0.0042,140.000,44.998,31819.25873,1.94678,401.547,36.645,45.067,44.997,0.00,0.09,-272.78,-272.84,-12,526,-941,22.0,28.7,3.0,22.3,28.8,3.3,5.73,1.69,0.1,27.9
2016-06-29 01:27:00,0.0,1.92794,0.00096,396.738,0.098,0.9779,0.0035,139.997,44.998,31816.31110,1.94718,401.550,36.588,45.067,44.998,0.00,0.09,-272.79,-272.84,-10,526,-940,22.1,28.7,3.0,22.2,28.8,3.2,5.73,1.98,0.1,27.9
2016-06-29 01:28:00,0.0,1.92610,0.00088,396.875,0.052,0.9660,0.0032,139.999,44.999,31813.84602,1.94494,401.635,36.549,45.068,44.998,0.00,0.09,-272.78,-272.84,-12,526,-940,22.0,28.4,2.9,22.2,28.6,3.1,5.73,1.67,0.1,27.8
2016-06-29 01:29:00,0.0,1.92655,0.00090,396.751,0.050,0.9735,0.0049,139.999,44.998,31811.80811,1.94556,401.541,36.512,45.068,44.998,0.00,0.09,-272.78,-272.84,-10,526,-940,22.0,28.6,3.0,22.2,28.6,3.1,5.73,1.99,0.1,27.8
2016-06-29 01:30:00,0.0,1.92553,0.00175,396.767,0.080,0.9718,0.0049,140.002,44.999,31810.33785,1.94466,401.551,36.490,45.068,44.999,0.00,0.09,-272.79,-272.84,-12,526,-940,22.0,28.6,2.9,22.2,28.7,3.1,5.73,1.67,0.1,27.8
2016-06-29 01:31:00,0.0,1.92434,0.00131,396.879,0.050,0.9653,0.0048,139.997,44.999,31807.70940,1.94319,401.631,36.488,45.069,44.999,0.00,0.09,-272.78,-272.84,-11,526,-940,22.0,28.4,2.8,22.2,28.6,3.1,5.73,1.99,0.1,27.8
2016-06-29 01:32:00,0.0,1.92311,0.00146,396.851,0.086,0.9637,0.0056,139.999,45.000,31806.64313,1.94193,401.595,36.492,45.069,45.000,0.00,0.09,-272.78,-272.83,-11,525,-940,22.0,28.3,2.8,22.2,28.4,3.0,5.73,1.67,0.1,27.8
2016-06-29 01:33:00,0.0,1.92013,0.00096,396.857,0.060,0.9645,0.0044,140.000,45.000,31805.20815,1.93904,401.606,36.489,45.070,45.000,0.00,0.09,-272.78,-272.85,-11,526,-940,22.0,28.4,2.8,22.2,28.5,3.1,5.73,2.00,0.1,27.8
2016-06-29 01:34:00,0.0,1.91640,0.00280,396.993,0.113,0.9584,0.0089,139.997,45.000,31803.90606,1.93523,401.708,36.449,45.069,45.000,0.00,0.09,-272.78,-272.84,-11,525,-940,22.0,28.1,2.7,22.2,28.4,3.0,5.73,1.66,0.1,27.7
2016-06-29 01:35:00,0.0,1.91823,0.00295,396.996,0.107,0.9577,0.0069,139.998,45.000,31801.54843,1.93691,401.710,36.438,45.069,44.999,0.00,0.09,-272.78,-272.83,-12,526,-940,21.9,28.1,2.6,22.2,28.2,2.9,5.73,2.00,0.1,27.8
2016-06-29 01:36:00,0.0,1.91875,0.00410,397.013,0.079,0.9593,0.0090,139.998,45.000,31798.17239,1.93738,401.737,36.436,45.069,44.999,0.00,0.09,-272.78,-272.84,-10,525,-940,22.0,28.2,2.7,22.2,28.2,2.9,5.73,1.66,0.1,27.8
2016-06-29 01:37:00,0.0,1.91898,0.00275,396.966,0.108,0.9616,0.0087,140.001,45.000,31798.72254,1.93755,401.702,36.423,45.069,44.999,0.00,0.09,-272.79,-272.85,-12,526,-940,22.0,28.3,2.8,22.1,28.4,2.9,5.73,2.00,0.1,27.7
2016-06-29 01:38:00,0.0,1.92456,0.00314,396.747,0.124,0.9787,0.0111,140.001,45.000,31797.97698,1.94334,401.567,36.387,45.069,44.999,0.00,0.09,-272.77,-272.84,-11,525,-940,22.0,28.9,3.0,22.1,28.8,3.1,5.73,1.66,0.1,27.7
2016-06-29 01:39:00,0.0,1.92614,0.00323,396.853,0.088,0.9761,0.0063,139.999,45.000,31795.04488,1.94548,401.659,36.376,45.069,44.999,0.00,0.09,-272.78,-272.84,-12,525,-939,22.0,28.7,3.0,22.1,28.9,3.2,5.73,2.00,0.1,27.7
2016-06-29 01:40:00,0.0,1.92655,0.00197,396.908,0.073,0.9738,0.0058,139.998,45.000,31792.71408,1.94541,401.701,36.370,45.069,44.999,0.00,0.09,-272.78,-272.85,-11,526,-940,22.0,28.6,2.9,22.1,28.7,3.1,5.73,1.66,0.1,27.7
2016-06-29 01:41:00,0.0,1.92812,0.00168,397.064,0.057,0.9670,0.0046,140.000,45.000,31794.74422,1.94717,401.828,36.348,45.069,44.999,0.00,0.09,-272.79,-272.85,-11,525,-940,22.0,28.4,2.8,22.1,28.7,3.1,5.73,1.99,0.1,27.7
2016-06-29 01:42:00,0.0,1.92620,0.00520,397.143,0.049,0.9559,0.0059,140.001,45.000,31796.75545,1.94460,401.851,36.363,45.070,45.000,0.00,0.09,-272.78,-272.84,-12,525,-940,22.0,28.1,2.7,22.1,28.4,2.9,5.73,1.67,0.1,27.7
2016-06-29 01:43:00,0.0,1.93071,0.00235,397.011,0.076,0.9704,0.0052,140.000,45.000,31794.50430,1.94988,401.789,36.374,45.070,45.001,0.00,0.09,-272.79,-272.84,-11,525,-940,22.0,28.5,2.9,22.1,28.6,3.0,5.73,1.99,0.1,27.7
2016-06-29 01:44:00,0.0,1.93152,0.00168,397.071,0.054,0.9677,0.0055,139.999,45.000,31793.46537,1.95038,401.840,36.373,45.070,45.000,0.00,0.09,-272.78,-272.84,-12,525,-939,22.0,28.5,2.8,22.1,28.6,3.0,5.73,1.67,0.1,27.6
2016-06-29 01:45:00,0.0,1.92878,0.00231,397.105,0.050,0.9645,0.0037,140.000,45.000,31794.67418,1.94784,401.856,36.373,45.070,45.000,0.00,0.09,-272.79,-272.84,-10,526,-939,22.0,28.3,2.8,22.1,28.5,3.0,5.73,2.00,0.1,27.7
2016-06-29 01:46:00,0.0,1.92703,0.00256,396.912,0.123,0.9693,0.0059,140.000,45.000,31794.00703,1.94589,401.687,36.339,45.069,44.999,0.00,0.09,-272.77,-272.84,-12,525,-939,22.0,28.5,2.9,22.1,28.6,3.0,5.73,1.65,0.1,27.6